QPF
0.00 0.00 0.00 0.00 0.00 0.00 0.00 0.00 0.00 0.00 0.00 0.00 0.00 0.00 0.00 0.00 0.00 0.00 0.00 0.00 0.00 0.00 0.00 0.00 0.00 0.00 0.00 0.00 0.00 0.00 0.00 0.00 0.00 0.00 0.01 0.01 0.01 0.01 0.00 0.00 0.00 0.00 0.00 0.00
0.00 0.00 0.00 0.00 0.00 0.00 0.00 0.00 0.00 0.00 0.00 0.00 0.00 0.00 0.00 0.00 0.00 0.00 0.00 0.00 0.00 0.00 0.00 0.00 0.00 0.00 0.00 0.00 0.00 0.00 0.00 0.00 0.00 0.00 0.00 0.00 0.00 0.00 0.00 0.00 0.00 0.00 0.00 0.00
0.00 0.00 0.00 0.00 0.00 0.00 0.00 0.00 0.00 0.00 0.00 0.00 0.00 0.00 0.00 0.00 0.00 0.00 0.00 0.00 0.00 0.00 0.00 0.00 0.00 0.00 0.00 0.00 0.00 0.00 0.00 0.00 0.00 0.00 0.00 0.00 0.01 0.01 0.00 0.00 0.00 0.00 0.00 0.00
0.00 0.00 0.01 0.01 0.00 0.02 0.01 0.00 0.00 0.00 0.01 0.00 0.00 0.00 0.00 0.00 0.00 0.00 0.00 0.00 0.00 0.00 0.00 0.00 0.00 0.00 0.00 0.00 0.00 0.00 0.00 0.00 0.00 0.00 0.00 0.00 0.00 0.00 0.00 0.00 0.00 0.00 0.00 0.00
0.01 0.00 0.02 0.01 0.00 0.03 0.01 0.00 0.01 0.01 0.02 0.01 0.00 0.01 0.00 0.00 0.00 0.00 0.00 0.00 0.00 0.00 0.00 0.00 0.00 0.00 0.00 0.00 0.00 0.00 0.00 0.00 0.00 0.01 0.00 0.00 0.00 0.00 0.00 0.00 0.00 0.00 0.00 0.00
0.03 0.01 0.03 0.02 0.01 0.01 0.01 0.02 0.02 0.04 0.04 0.02 0.00 0.02 0.00 0.00 0.00 0.00 0.00 0.00 0.00 0.00 0.00 0.00 0.00 0.00 0.00 0.00 0.00 0.00 0.00 0.00 0.00 0.01 0.03 0.00 0.00 0.00 0.00 0.00 0.00 0.00 0.00 0.00
0.03 0.01 0.00 0.02 0.04 0.04 0.05 0.05 0.05 0.03 0.02 0.01 0.00 0.02 0.00 0.00 0.00 0.00 0.00 0.00 0.00 0.00 0.00 0.00 0.00 0.00 0.00 0.00 0.00 0.00 0.00 0.00 0.00 0.00 0.03 0.01 0.00 0.00 0.00 0.00 0.00 0.00 0.00 0.00
0.05 0.02 0.01 0.01 0.03 0.02 0.02 0.03 0.03 0.02 0.03 0.02 0.01 0.02 0.00 0.00 0.00 0.00 0.00 0.00 0.00 0.00 0.00 0.00 0.00 0.00 0.00 0.00 0.00 0.00 0.00 0.00 0.00 0.00 0.01 0.03 0.01 0.01 0.00 0.00 0.00 0.00 0.00 0.00
0.03 0.02 0.01 0.01 0.02 0.04 0.05 0.06 0.02 0.05 0.02 0.03 0.02 0.01 0.01 0.00 0.00 0.00 0.00 0.00 0.00 0.00 0.00 0.00 0.00 0.00 0.00 0.00 0.00 0.00 0.00 0.00 0.00 0.00 0.00 0.01 0.03 0.03 0.02 0.01 0.01 0.01 0.00 0.00
0.01 0.01 0.01 0.00 0.01 0.02 0.04 0.05 0.06 0.04 0.02 0.02 0.01 0.00 0.05 0.00 0.00 0.00 0.00 0.00 0.00 0.00 0.00 0.00 0.00 0.00 0.00 0.00 0.00 0.00 0.00 0.00 0.00 0.00 0.00 0.00 0.00 0.02 0.04 0.05 0.03 0.02 0.01 0.00
0.00 0.00 0.01 0.01 0.00 0.00 0.02 0.02 0.02 0.02 0.01 0.01 0.02 0.04 0.01 0.00 0.00 0.00 0.00 0.00 0.00 0.00 0.00 0.00 0.00 0.00 0.00 0.00 0.00 0.00 0.00 0.00 0.00 0.00 0.00 0.00 0.00 0.00 0.01 0.07 0.08 0.06 0.04 0.01
0.01 0.01 0.01 0.01 0.00 0.00 0.00 0.00 0.00 0.01 0.00 0.00 0.00 0.01 0.00 0.00 0.00 0.00 0.00 0.00 0.00 0.00 0.00 0.00 0.00 0.00 0.00 0.00 0.00 0.00 0.00 0.00 0.00 0.00 0.00 0.00 0.00 0.00 0.00 0.01 0.05 0.09 0.07 0.04
0.01 0.02 0.02 0.01 0.01 0.01 0.01 0.01 0.00 0.00 0.00 0.01 0.01 0.01 0.00 0.00 0.00 0.00 0.00 0.00 0.00 0.00 0.00 0.00 0.00 0.00 0.00 0.00 0.00 0.00 0.00 0.00 0.00 0.00 0.00 0.00 0.00 0.00 0.00 0.00 0.01 0.05 0.06 0.04
0.01 0.02 0.01 0.01 0.00 0.01 0.01 0.00 0.01 0.01 0.01 0.01 0.01 0.01 0.01 0.00 0.00 0.00 0.00 0.00 0.00 0.00 0.00 0.00 0.00 0.00 0.00 0.00 0.00 0.00 0.00 0.00 0.00 0.00 0.00 0.00 0.00 0.00 0.00 0.00 0.00 0.01 0.04 0.06
0.01 0.01 0.01 0.00 0.00 0.00 0.00 0.00 0.00 0.00 0.01 0.00 0.01 0.01 0.01 0.00 0.00 0.00 0.00 0.00 0.00 0.00 0.00 0.00 0.00 0.00 0.00 0.00 0.00 0.00 0.00 0.00 0.00 0.00 0.00 0.00 0.00 0.00 0.00 0.00 0.00 0.00 0.00 0.02
0.02 0.01 0.00 0.00 0.00 0.00 0.00 0.00 0.00 0.00 0.00 0.01 0.00 0.00 0.00 0.00 0.00 0.00 0.00 0.00 0.00 0.00 0.00 0.00 0.00 0.00 0.00 0.00 0.00 0.00 0.00 0.00 0.00 0.00 0.00 0.00 0.00 0.00 0.00 0.00 0.00 0.00 0.00 0.00
0.01 0.01 0.01 0.00 0.00 0.00 0.00 0.00 0.00 0.00 0.00 0.00 0.00 0.00 0.00 0.00 0.00 0.00 0.00 0.00 0.00 0.00 0.00 0.00 0.00 0.00 0.00 0.00 0.00 0.00 0.00 0.00 0.00 0.00 0.00 0.00 0.00 0.00 0.00 0.00 0.00 0.00 0.00 0.00
0.01 0.00 0.01 0.00 0.00 0.00 0.00 0.00 0.00 0.00 0.00 0.00 0.00 0.00 0.00 0.00 0.00 0.00 0.00 0.00 0.00 0.00 0.00 0.00 0.00 0.00 0.00 0.00 0.00 0.00 0.00 0.00 0.00 0.00 0.00 0.00 0.00 0.00 0.00 0.00 0.00 0.00 0.00 0.00
0.00 0.01 0.02 0.01 0.01 0.00 0.00 0.00 0.00 0.00 0.00 0.00 0.00 0.00 0.00 0.00 0.00 0.00 0.00 0.00 0.00 0.00 0.00 0.00 0.00 0.00 0.00 0.00 0.00 0.00 0.00 0.00 0.00 0.00 0.00 0.00 0.00 0.00 0.00 0.00 0.00 0.00 0.00 0.00
0.01 0.01 0.03 0.01 0.02 0.01 0.01 0.00 0.00 0.00 0.00 0.00 0.00 0.00 0.00 0.00 0.00 0.00 0.00 0.00 0.00 0.00 0.00 0.00 0.00 0.00 0.00 0.00 0.00 0.00 0.00 0.00 0.00 0.00 0.00 0.00 0.00 0.00 0.00 0.00 0.00 0.00 0.00 0.00
0.04 0.03 0.03 0.02 0.03 0.02 0.01 0.00 0.00 0.00 0.01 0.00 0.00 0.00 0.00 0.00 0.00 0.00 0.00 0.00 0.00 0.00 0.00 0.00 0.00 0.00 0.00 0.00 0.00 0.00 0.00 0.00 0.00 0.00 0.00 0.00 0.00 0.00 0.00 0.00 0.00 0.00 0.00 0.00
0.03 0.06 0.04 0.03 0.05 0.05 0.00 0.00 0.01 0.02 0.01 0.00 0.00 0.00 0.00 0.00 0.00 0.00 0.00 0.00 0.00 0.00 0.00 0.00 0.00 0.00 0.00 0.00 0.00 0.00 0.00 0.00 0.00 0.00 0.00 0.00 0.00 0.00 0.00 0.00 0.00 0.00 0.00 0.00
0.02 0.02 0.03 0.04 0.04 0.01 0.00 0.00 0.00 0.00 0.00 0.00 0.00 0.00 0.00 0.00 0.00 0.00 0.00 0.00 0.00 0.00 0.00 0.00 0.00 0.00 0.00 0.00 0.00 0.00 0.00 0.00 0.00 0.00 0.00 0.00 0.00 0.00 0.00 0.00 0.00 0.00 0.00 0.00
0.03 0.01 0.01 0.01 0.01 0.00 0.00 0.00 0.00 0.00 0.00 0.00 0.00 0.00 0.00 0.00 0.00 0.00 0.00 0.00 0.00 0.00 0.00 0.00 0.00 0.00 0.00 0.00 0.00 0.00 0.00 0.00 0.00 0.00 0.00 0.00 0.00 0.00 0.00 0.00 0.00 0.00 0.00 0.00
0.03 0.02 0.03 0.02 0.01 0.00 0.00 0.00 0.00 0.00 0.00 0.00 0.00 0.00 0.00 0.00 0.00 0.00 0.00 0.00 0.00 0.00 0.00 0.00 0.00 0.00 0.00 0.00 0.00 0.00 0.00 0.00 0.00 0.00 0.00 0.00 0.00 0.00 0.00 0.00 0.00 0.00 0.00 0.00
0.00 0.00 0.01 0.02 0.01 0.00 0.00 0.01 0.00 0.00 0.00 0.00 0.00 0.00 0.00 0.00 0.00 0.00 0.00 0.00 0.00 0.01 0.00 0.00 0.00 0.00 0.00 0.00 0.00 0.00 0.00 0.00 0.00 0.00 0.00 0.00 0.00 0.00 0.00 0.00 0.00 0.00 0.00 0.00
MSLP
1005.06 1005.95 1002.69 1003.76 1003.92 1003.26 1002.77 1001.01 998.97 997.94 997.56 997.10 995.92 994.42 994.58 994.55 993.75 993.04 992.83 992.54 992.56 992.57 993.35 993.52 993.81 994.54 995.23 995.60 996.08 996.57 997.50 998.81 1000.39 1001.40 1001.96 1002.59 1003.18 1004.23 1005.15 1006.19 1006.90 1007.25 1008.04 1008.71
1004.12 1002.23 1001.28 1002.94 1003.28 1003.04 1002.07 1000.79 997.88 997.91 998.12 997.85 996.25 992.83 993.52 993.27 992.58 991.79 991.47 991.32 991.30 991.49 991.69 992.74 993.16 993.80 994.45 995.06 995.60 996.06 996.70 997.61 998.88 1000.01 1000.83 1001.84 1002.51 1003.27 1004.40 1005.61 1006.36 1006.93 1007.71 1008.49
1001.22 997.39 1001.84 1001.28 1000.76 1000.79 1000.52 999.71 999.09 998.53 998.56 997.35 996.31 991.57 992.67 991.50 990.36 990.14 990.21 990.13 990.39 990.54 990.80 991.53 992.58 993.73 994.49 994.86 995.37 995.82 996.06 996.60 997.51 998.71 999.90 1001.48 1002.48 1003.22 1004.18 1005.16 1005.84 1006.43 1007.08 1007.69
1000.51 999.46 999.76 999.82 998.86 998.79 998.44 998.39 998.71 998.39 998.35 996.69 996.71 991.49 990.94 990.34 989.15 988.61 988.36 988.78 988.98 989.44 990.07 990.71 991.74 992.61 993.90 995.04 995.69 996.10 996.29 996.15 996.46 997.40 998.81 1000.51 1001.77 1002.33 1002.93 1003.73 1004.66 1005.37 1006.16 1007.05
998.09 998.56 998.17 998.03 997.46 998.73 997.34 998.39 997.69 997.37 997.34 997.15 996.19 995.23 983.43 989.60 988.79 987.87 987.91 989.04 989.41 990.24 991.06 991.88 992.97 993.61 994.68 995.64 996.69 996.85 996.34 996.13 996.01 996.53 997.77 999.60 1001.13 1002.00 1002.73 1003.57 1004.27 1004.81 1005.40 1006.06
997.42 997.00 996.52 996.31 996.63 996.60 996.81 997.65 997.31 997.48 997.71 996.13 992.77 994.98 985.21 989.11 988.26 987.88 989.12 990.47 991.29 992.37 993.23 993.92 994.60 995.10 995.60 996.24 996.64 996.90 996.95 996.28 996.16 996.49 997.38 998.71 999.97 1001.18 1001.93 1002.67 1003.55 1004.17 1004.78 1005.39
997.31 996.18 995.86 996.52 996.04 996.66 996.56 996.82 996.47 996.67 996.28 994.14 992.22 993.45 988.69 988.32 988.01 989.34 990.45 991.95 993.00 993.91 994.75 995.41 995.88 996.18 996.56 996.98 997.01 996.81 996.50 996.22 995.87 996.46 997.38 998.38 999.23 1000.06 1000.97 1001.44 1002.30 1003.26 1003.94 1004.51
996.65 995.65 994.94 994.96 995.12 995.28 995.96 996.19 994.75 994.99 994.56 993.62 992.72 991.36 990.24 989.97 989.67 990.23 992.38 993.51 994.54 995.16 995.77 996.51 996.96 997.20 997.60 997.80 997.73 997.47 996.75 996.44 996.60 996.31 996.95 998.09 998.82 999.55 1000.02 1000.51 1001.03 1001.67 1002.63 1003.53
997.70 996.86 994.74 995.66 995.33 996.04 995.46 995.26 995.00 995.70 994.94 994.71 993.59 992.76 993.39 992.87 993.62 993.37 994.84 995.28 996.10 996.88 997.35 997.67 998.22 998.53 998.43 998.64 998.65 998.65 998.13 997.43 997.34 997.24 997.27 997.63 998.25 998.64 999.13 999.40 999.81 1000.57 1001.26 1002.19
1000.29 999.03 998.42 998.01 997.79 997.16 997.20 996.75 996.23 996.09 995.92 995.00 993.93 993.05 993.96 995.90 996.72 997.49 998.29 998.60 998.87 998.94 998.89 998.92 999.34 999.42 999.46 999.50 999.38 999.59 999.20 998.46 998.35 998.19 997.96 998.12 998.02 998.28 998.37 998.65 998.87 999.07 999.91 1000.84
1001.74 1000.25 999.85 999.36 998.89 998.69 998.81 997.90 998.08 996.99 996.94 996.29 995.60 995.97 997.93 997.14 999.07 1000.63 1001.41 1001.58 1001.49 1001.28 1001.20 1000.31 999.81 1000.06 1000.05 1000.31 1000.32 1000.12 1000.14 999.80 999.22 998.92 998.64 998.40 998.70 998.46 998.36 998.05 998.15 998.09 998.50 999.45
1001.88 1001.07 1000.43 999.31 999.75 999.95 1000.20 999.48 998.66 997.87 997.94 998.68 998.16 998.89 999.82 999.70 1000.97 1001.90 1002.74 1002.97 1002.68 1002.17 1001.83 1001.38 1000.94 1000.91 1000.57 1000.65 1000.70 1000.67 1000.55 1000.30 1000.06 999.83 999.47 999.20 998.84 998.77 998.62 998.40 997.65 997.65 997.76 998.33
1002.96 1001.44 1000.39 999.75 999.76 999.80 999.69 1000.01 999.33 999.15 998.91 999.32 999.16 999.44 1000.54 1001.08 1001.77 1002.52 1002.40 1002.54 1002.47 1002.33 1002.08 1001.60 1001.39 1001.52 1001.92 1001.74 1001.46 1000.83 1000.76 1000.80 1000.54 1000.11 999.71 999.30 999.21 998.90 998.79 998.77 998.54 998.46 997.72 997.45
1003.08 1002.28 1001.34 1000.03 999.60 999.83 999.66 999.02 999.07 999.30 999.23 998.92 998.95 999.03 1000.18 1000.79 1001.65 1001.90 1001.85 1001.64 1001.96 1002.45 1002.63 1002.18 1001.77 1001.59 1001.47 1001.81 1001.84 1001.23 1000.76 1000.55 1000.61 1000.34 999.85 999.08 998.92 999.07 999.13 999.05 998.77 998.57 998.43 997.93
1002.69 1001.98 1001.45 1000.76 1000.05 999.55 998.66 998.25 998.91 998.50 999.28 999.41 999.28 999.30 999.17 999.84 1000.24 1000.64 1000.90 1000.58 1000.77 1002.37 1002.08 1002.43 1002.07 1001.23 1001.33 1001.51 1001.37 1001.44 1001.17 1000.84 1000.60 1000.28 1000.10 999.48 998.80 998.74 998.97 999.30 999.09 998.88 998.59 998.31
1002.42 1001.85 1001.26 1000.56 999.37 998.12 997.28 997.45 997.36 997.89 998.55 998.80 998.75 998.47 997.96 998.21 998.62 999.05 999.73 1000.41 1000.52 1001.14 1001.77 1002.06 1001.49 1001.10 1000.72 1000.85 1001.10 1001.34 1001.17 1000.80 1000.86 1000.38 999.72 999.27 998.83 998.28 998.50 998.93 998.98 998.57 998.42 998.39
1002.18 1001.73 1001.31 999.93 998.97 998.32 998.11 997.39 997.17 997.02 996.98 997.04 996.96 996.99 997.05 997.84 998.00 998.17 999.02 1000.09 1000.22 1000.67 1001.14 1001.54 1001.53 1000.92 1000.18 1000.38 1000.35 1000.82 1000.37 1000.10 999.64 999.78 999.03 998.37 998.28 998.01 998.18 998.60 998.77 998.28 998.12 998.22
1002.04 1002.36 1001.61 1000.35 999.43 998.33 996.97 996.96 996.67 996.66 996.58 996.25 996.04 996.19 996.60 996.87 997.30 998.42 999.34 999.40 999.95 1000.22 1000.76 1001.08 1000.96 1000.21 999.84 999.70 999.70 999.99 1000.10 999.50 999.23 998.61 998.50 998.43 998.10 997.70 997.47 997.61 998.30 997.88 997.74 998.32
1000.91 1001.35 1001.45 1000.65 999.13 997.89 996.86 996.46 996.77 996.72 996.70 996.35 996.54 996.61 997.10 997.65 998.14 998.43 999.18 999.82 1000.20 1000.45 1000.59 1000.60 999.76 999.33 998.98 999.01 998.62 999.40 999.18 998.41 998.56 998.05 997.92 997.75 998.07 998.06 997.70 998.14 998.00 998.44 998.65 998.16
999.87 1000.61 1001.56 1001.00 1000.06 998.48 997.95 997.80 997.67 997.99 997.90 998.03 997.82 998.11 998.44 998.42 998.61 999.28 999.74 999.85 1000.13 1000.17 999.93 999.21 999.11 998.74 998.31 998.16 998.02 998.55 998.14 997.98 998.01 998.27 997.35 997.28 997.18 997.71 998.21 998.16 997.94 998.81 999.21 999.10
1000.33 1000.78 1001.06 1001.15 1000.71 999.52 999.43 998.64 998.69 998.77 999.81 999.69 999.73 999.80 1000.08 1000.01 999.95 999.91 1000.13 1000.04 999.91 999.37 998.88 998.50 998.02 997.50 997.21 997.25 997.31 997.31 997.20 997.17 997.22 997.18 996.62 996.51 997.01 997.37 997.90 997.95 997.77 998.69 999.28 999.09
1000.58 1000.81 1000.51 1000.92 1000.78 1000.29 999.82 999.27 999.38 1000.14 1000.24 1000.23 1000.18 1000.28 1000.64 1000.92 1000.93 1000.79 1000.50 1000.04 999.71 999.12 998.45 997.91 997.28 996.74 996.47 996.30 996.28 996.10 995.93 996.28 996.16 996.37 996.36 996.33 996.55 997.55 997.90 997.85 998.08 998.52 999.02 999.43
1000.57 1000.71 1001.02 1000.85 1000.69 1000.98 1000.34 1000.11 1000.33 1000.46 1000.65 1000.68 1000.78 1000.77 1000.76 1000.76 1000.83 1000.82 1000.30 999.88 999.16 998.56 997.90 997.44 996.93 996.35 995.94 995.67 995.48 995.00 994.53 995.18 995.40 995.77 995.87 996.11 996.72 997.61 997.78 998.07 998.34 998.89 999.21 999.45
1000.14 1000.11 1000.36 1000.22 999.98 999.91 1000.34 1000.27 1000.50 1000.75 1000.90 1000.99 1000.96 1000.84 1000.82 1000.99 1001.25 1000.99 1000.60 1000.02 999.47 998.91 998.32 997.76 996.95 996.05 995.35 995.14 994.80 994.29 994.10 994.40 994.32 994.63 994.97 995.99 997.08 997.76 998.03 998.22 998.63 998.66 999.12 999.29
1000.69 1000.05 999.98 1000.03 999.63 999.66 1000.06 1000.29 1000.77 1001.04 1001.24 1001.15 1001.11 1001.13 1001.23 1001.33 1001.12 1001.39 1001.37 1000.74 1000.07 999.22 998.16 997.62 997.21 996.37 995.41 994.94 994.31 993.74 993.40 993.31 993.34 994.20 994.53 995.54 996.46 997.25 997.72 998.29 998.67 998.86 999.35 999.30
999.29 999.51 999.81 1000.30 1000.63 1000.60 1000.43 1000.71 1001.25 1001.45 1001.54 1001.69 1001.72 1001.60 1001.56 1001.43 1001.60 1001.87 1001.64 1001.06 1000.41 999.70 999.31 998.87 998.17 997.42 996.52 995.92 995.08 994.45 993.98 993.81 993.60 993.86 994.40 995.11 995.97 996.85 997.47 998.10 998.89 999.12 999.10 999.41
Thickness
5611 5604 5633 5625 5628 5642 5647 5660 5672 5684 5689 5679 5686 5701 5706 5712 5721 5727 5731 5737 5741 5745 5747 5751 5755 5754 5752 5754 5754 5753 5746 5742 5729 5724 5721 5720 5719 5716 5713 5708 5705 5705 5702 5698
5603 5622 5649 5634 5626 5624 5633 5636 5663 5669 5669 5664 5673 5699 5705 5711 5717 5733 5734 5737 5742 5749 5751 5745 5749 5749 5749 5748 5749 5750 5748 5743 5735 5728 5726 5720 5720 5717 5712 5704 5702 5699 5695 5691
5609 5668 5625 5629 5636 5628 5624 5628 5636 5638 5648 5664 5662 5696 5695 5718 5730 5734 5738 5744 5745 5746 5749 5747 5743 5738 5738 5740 5741 5743 5746 5745 5738 5733 5725 5716 5712 5707 5701 5698 5697 5697 5695 5692
5599 5637 5621 5615 5629 5641 5625 5648 5637 5636 5628 5629 5652 5674 5697 5710 5725 5734 5743 5744 5747 5752 5750 5749 5745 5740 5734 5731 5733 5734 5736 5741 5742 5736 5723 5712 5704 5703 5708 5706 5701 5697 5695 5690
5603 5613 5609 5613 5624 5618 5628 5638 5637 5641 5631 5625 5634 5619 5733 5709 5706 5724 5732 5728 5734 5734 5732 5729 5723 5724 5720 5716 5713 5717 5726 5732 5737 5736 5729 5715 5703 5702 5701 5696 5694 5693 5691 5689
5596 5621 5618 5613 5629 5633 5636 5622 5626 5624 5613 5597 5660 5621 5706 5690 5706 5719 5709 5703 5706 5702 5702 5701 5702 5702 5702 5702 5703 5706 5709 5719 5725 5726 5723 5716 5707 5700 5696 5693 5689 5689 5687 5685
5583 5591 5612 5608 5601 5611 5614 5610 5594 5590 5593 5604 5667 5629 5679 5696 5709 5698 5683 5676 5677 5680 5676 5675 5676 5678 5679 5681 5687 5693 5700 5705 5716 5713 5710 5708 5704 5700 5695 5695 5690 5685 5683 5682
5576 5575 5600 5611 5598 5607 5602 5607 5602 5595 5599 5620 5655 5624 5661 5671 5683 5683 5662 5657 5655 5655 5656 5652 5654 5658 5658 5661 5665 5673 5685 5690 5695 5704 5704 5697 5696 5693 5693 5692 5692 5689 5684 5682
5555 5562 5595 5577 5598 5592 5600 5584 5619 5599 5621 5601 5605 5623 5616 5625 5620 5634 5626 5628 5627 5627 5627 5628 5629 5631 5639 5640 5644 5649 5658 5669 5675 5681 5688 5690 5689 5689 5688 5692 5693 5689 5686 5682
5500 5540 5519 5533 5553 5557 5567 5581 5581 5579 5578 5587 5606 5633 5622 5590 5586 5584 5582 5584 5591 5597 5601 5604 5604 5608 5615 5620 5625 5624 5633 5646 5652 5658 5665 5670 5677 5680 5684 5685 5685 5689 5688 5682
5477 5497 5513 5515 5525 5532 5539 5554 5544 5565 5557 5576 5588 5588 5543 5563 5564 5546 5538 5541 5553 5560 5565 5580 5589 5590 5596 5599 5602 5608 5612 5618 5628 5636 5645 5652 5653 5662 5669 5677 5679 5681 5683 5682
5476 5489 5512 5525 5505 5506 5506 5522 5520 5550 5554 5543 5551 5552 5523 5532 5528 5527 5517 5516 5525 5533 5545 5555 5562 5566 5574 5580 5586 5588 5591 5598 5606 5614 5622 5629 5637 5643 5649 5656 5668 5670 5672 5673
5445 5476 5497 5501 5499 5500 5512 5499 5505 5504 5510 5529 5534 5540 5504 5507 5504 5502 5510 5511 5516 5522 5529 5536 5540 5541 5541 5550 5560 5572 5578 5579 5584 5592 5603 5613 5619 5626 5632 5636 5644 5651 5660 5666
5437 5443 5451 5487 5487 5491 5488 5502 5499 5496 5507 5520 5522 5516 5498 5492 5490 5491 5504 5511 5510 5508 5510 5517 5524 5529 5537 5532 5539 5546 5559 5568 5570 5576 5586 5597 5604 5608 5612 5618 5626 5633 5640 5647
5439 5437 5447 5458 5480 5491 5496 5501 5491 5489 5486 5486 5490 5493 5500 5491 5497 5496 5498 5506 5505 5494 5502 5499 5505 5517 5520 5522 5526 5530 5535 5545 5552 5558 5566 5575 5587 5594 5596 5598 5604 5613 5622 5629
5427 5429 5444 5450 5476 5486 5489 5496 5502 5497 5492 5484 5486 5488 5503 5502 5502 5501 5495 5489 5490 5487 5485 5484 5494 5505 5511 5514 5513 5516 5520 5527 5529 5538 5550 5560 5570 5581 5585 5586 5591 5602 5609 5614
5421 5427 5428 5448 5471 5471 5460 5473 5488 5496 5500 5496 5490 5499 5500 5488 5489 5491 5484 5475 5478 5477 5476 5474 5478 5489 5500 5501 5505 5503 5513 5518 5526 5529 5541 5553 5558 5566 5571 5573 5578 5590 5597 5602
5404 5403 5424 5438 5457 5442 5486 5484 5488 5487 5491 5498 5498 5496 5490 5486 5487 5476 5471 5468 5467 5467 5466 5466 5468 5477 5485 5492 5494 5494 5497 5508 5512 5524 5531 5537 5546 5557 5562 5568 5569 5579 5587 5587
5428 5420 5412 5423 5451 5473 5483 5482 5472 5473 5481 5485 5481 5483 5473 5470 5468 5464 5456 5452 5451 5450 5451 5453 5463 5469 5475 5479 5487 5483 5488 5501 5501 5511 5518 5525 5527 5534 5545 5546 5555 5556 5560 5570
5435 5429 5408 5420 5424 5443 5457 5458 5461 5457 5455 5457 5461 5456 5455 5457 5456 5442 5440 5441 5440 5440 5443 5448 5449 5455 5462 5465 5471 5471 5480 5485 5488 5490 5505 5511 5517 5517 5518 5525 5535 5534 5536 5542
5409 5408 5403 5407 5411 5439 5435 5445 5447 5433 5425 5431 5433 5432 5429 5430 5433 5433 5430 5429 5429 5434 5438 5441 5445 5450 5456 5455 5456 5461 5467 5472 5476 5480 5492 5500 5502 5501 5501 5505 5512 5511 5511 5519
5401 5396 5410 5410 5406 5409 5428 5433 5428 5418 5419 5421 5422 5420 5415 5412 5412 5413 5415 5419 5419 5422 5426 5430 5433 5441 5448 5450 5450 5456 5461 5461 5464 5469 5474 5480 5484 5480 5481 5487 5490 5493 5493 5494
5397 5404 5390 5397 5397 5401 5414 5415 5416 5415 5411 5410 5408 5408 5406 5405 5402 5399 5403 5405 5409 5412 5416 5420 5422 5428 5437 5439 5439 5446 5461 5452 5454 5456 5462 5466 5462 5456 5460 5465 5470 5473 5476 5480
5409 5415 5404 5409 5416 5415 5409 5412 5411 5408 5404 5402 5401 5401 5399 5393 5386 5385 5388 5391 5394 5397 5398 5402 5408 5415 5422 5426 5426 5434 5443 5439 5443 5450 5455 5446 5439 5439 5444 5451 5455 5462 5465 5469
5387 5408 5407 5408 5418 5418 5411 5409 5402 5398 5395 5394 5393 5390 5385 5380 5380 5371 5367 5371 5375 5381 5389 5390 5390 5397 5406 5408 5411 5418 5424 5426 5429 5429 5437 5432 5429 5432 5435 5438 5443 5447 5449 5456
5420 5413 5406 5390 5398 5399 5402 5399 5391 5386 5383 5379 5375 5374 5372 5370 5362 5354 5351 5355 5359 5364 5364 5363 5367 5369 5375 5377 5383 5389 5392 5392 5399 5403 5404 5409 5412 5419 5424 5429 5430 5435 5441 5443